Regional Weather Roundup
Issued by NWS

Home | Current Version | Previous Version | Graphics & Text | Print | Product List | Glossary On
Versions: 1 2 3 4 5 6 7 8 9 10 11 12 13 14 15 16 17 18 19 20 21 22 23 24 25 26 27
000
ASUS45 KBOI 150910
RWRID

IDAHO REGIONAL WEATHER ROUNDUP
NATIONAL WEATHER SERVICE BOISE ID
200 AM MST SUN JAN 15 2017

NOTE: "FAIR" INDICATES FEW OR NO CLOUDS BELOW 12000 FEET
WITH NO SIGNIFICANT WEATHER AND/OR OBSTRUCTIONS TO VISIBILITY

IDZ012-014-151000-
SOUTHWEST IDAHO


CITY           SKY/WX    TMP DP  RH WIND       PRES   REMARKS
BOISE          CLOUDY    12  10  92 NW6       30.39F FOG     WCI   3
CALDWELL       FLURRIES  12   8  84 N5        30.45F WCI   4
MOUNTAIN HOME  MIX PCPN  13  13 100 N3        30.38F
$$

IDZ016-017-151000-
SOUTHCENTRAL IDAHO


CITY           SKY/WX    TMP DP  RH WIND       PRES   REMARKS
BURLEY         PTCLDY    12   8  84 CALM      30.25F
JEROME         PTCLDY     4   1  88 CALM      30.28F
TWIN FALLS     PTCLDY     8   4  83 N3        30.27F
$$

IDZ019>023-151000-
SOUTHEAST IDAHO


CITY           SKY/WX    TMP DP  RH WIND       PRES   REMARKS
IDAHO FALLS    CLOUDY    -3  -5  90 N6        30.25F WCI -15
POCATELLO      CLOUDY     5   2  87 W8        30.26F WCI  -8
REXBURG        CLOUDY    -3  -6  87 NE6       30.23F WCI -15
$$

IDZ006-010-011-018-031-032-151000-
CENTRAL IDAHO MOUNTAINS


CITY           SKY/WX    TMP DP  RH WIND       PRES   REMARKS
MCCALL         PTCLDY    -5 -11  75 CALM      30.22F
HAILEY         PTCLDY    12   3  67 NW15      30.23F WCI  -4
STANLEY          N/A    -20 -24  82 CALM      30.28F
SALMON         CLOUDY   -15 -15 100 CALM      30.51F
CHALLIS        PTCLDY   -26 -30  81 CALM      30.40F
$$

IDZ002-004-006-007-026-151000-
NORTHERN IDAHO


CITY           SKY/WX    TMP DP  RH WIND       PRES   REMARKS
LEWISTON       CLOUDY    13  10  88 E5        30.44F WCI   5
LOWELL           N/A     10   7  87 NW3       30.48F
COEUR D`ALENE  PTCLDY     9   7  92 NE6       30.36F WCI  -1
MULLAN PASS    CLEAR     22   4  46 W3        30.16F
$$




USA.gov is the U.S. government's official web portal to all federal, state and local government web resources and services.